Location: Burera
(21.3780°N, 81.9534°E)
Time: 00:26:32
(UTC+00:00)

CZ-2D R/B - Pass Details

Date: 13 August 2020
Orbit: 522 x 537 km, 97.4° (Epoch: 22 September)

Event Time Altitude Azimuth Distance (km) Brightness Sun altitude
Rises 13:23:07 0° 174° (S) 2,635 6.6 -5.1°
Reaches altitude 10° 13:25:13 10° 177° (S) 1,751 5.7 -5.6°
Maximum altitude 13:28:58 64° 259° (W) 581 3.7 -6.4°
Drops below altitude 10° 13:32:44 10° 342° (NNW) 1,763 6.5 -7.3°
Sets 13:34:52 0° 345° (NNW) 2,656 7.3 -7.7°
